Location: ????????
(48.4751°N, 37.6926°E)
Time: 19:44:15
(UTC+00:00)

Cosmos 1606 Rocket - Pass Details

Date: 20 January 2021
Orbit: 604 x 631 km, 82.5° (Epoch: 01 March)

Event Time Altitude Azimuth Distance (km) Brightness Sun altitude
Rises 15:12:45 0° 350° (N) 2,890 6.9 -10.4°
Reaches altitude 10° 15:14:58 10° 350° (N) 1,984 6.1 -10.8°
Maximum altitude 15:19:22 89° 270° (W) 625 3.6 -11.5°
Drops below altitude 10° 15:23:47 10° 173° (S) 1,985 6.3 -12.2°
Sets 15:26:00 0° 173° (S) 2,891 7.1 -12.5°
